Powrót do katalogu

COSMOS 1266 FUEL CORE

AktywnyLEO
NORAD 12435·DEBRIS·🇷🇺 Russia

Wystrzelony Apr 21, 1981 z Baikonur Cosmodrome

Loading…

Następne Przeloty (najbliższe 24 godziny)

TLE

ŚwieżeSource: Space-Track

Epoka: Sep 14, 2026, 16:54 UTC

1 12435U 81037D   26257.70475481 -.00000099  00000-0 -49986-5 0  9993
2 12435  64.7672 240.5054 0027747 232.6220 127.2316 13.93193732308704

Śledź COSMOS 1266 FUEL CORE w czasie rzeczywistym z AllMySat

Download on the App Store